BAW903 EDDF-EGLL

Flight info

Callsign BAW903
Flight time 1h 14m
Altitude 36000
Route OBOKA3M/25C OBOKA Z29 TORNU DCT ABNED L980 LOGAN
Aircraft A320/M-SDE3FGIJ1KRWXY/SB1

Departure

Time 2026-04-14 08:04
Airport Frankfurt Main Airport (EDDF)

Arrival

Time 2026-04-14 09:18
Airport London Heathrow Airport (EGLL)
Time Latitude Longitude Altitude Speed Heading
2026-04-14 07:32 50.05001 8.58454 355 ft 0 kts 320°
2026-04-14 07:52 50.04998 8.58456 350 ft 3 kts 320°
2026-04-14 07:52 50.04977 8.58481 360 ft 4 kts 327°
2026-04-14 07:52 50.04954 8.58503 360 ft 4 kts 327°
2026-04-14 07:53 50.04935 8.58528 350 ft 4 kts 288°
2026-04-14 07:53 50.04934 8.58541 358 ft 0 kts 250°
2026-04-14 07:58 50.04932 8.58535 359 ft 3 kts 250°
2026-04-14 07:59 50.04911 8.58444 354 ft 12 kts 250°
2026-04-14 07:59 50.04876 8.58300 355 ft 17 kts 249°
2026-04-14 07:59 50.04830 8.58103 359 ft 21 kts 251°
2026-04-14 07:59 50.04744 8.57921 351 ft 20 kts 197°
2026-04-14 08:00 50.04681 8.57769 356 ft 16 kts 249°
2026-04-14 08:00 50.04639 8.57594 355 ft 18 kts 250°
2026-04-14 08:00 50.04569 8.57513 350 ft 12 kts 155°
2026-04-14 08:00 50.04497 8.57564 358 ft 12 kts 156°
2026-04-14 08:01 50.04457 8.57652 358 ft 11 kts 77°
2026-04-14 08:01 50.04482 8.57772 355 ft 13 kts 72°
2026-04-14 08:01 50.04516 8.57915 360 ft 15 kts 69°
2026-04-14 08:01 50.04558 8.58084 358 ft 18 kts 68°
2026-04-14 08:02 50.04606 8.58284 358 ft 21 kts 69°
2026-04-14 08:02 50.04648 8.58502 354 ft 16 kts 106°
2026-04-14 08:02 50.04616 8.58567 359 ft 0 kts 141°
2026-04-14 08:02 50.04611 8.58572 358 ft 6 kts 148°
2026-04-14 08:03 50.04547 8.58613 374 ft 11 kts 174°
2026-04-14 08:03 50.04477 8.58535 377 ft 15 kts 242°
2026-04-14 08:03 50.04445 8.58395 376 ft 15 kts 249°
2026-04-14 08:03 50.04405 8.58235 377 ft 18 kts 248°
2026-04-14 08:04 50.04298 8.57783 375 ft 79 kts 249°
2026-04-14 08:04 50.04039 8.56689 378 ft 134 kts 250°
2026-04-14 08:04 50.03680 8.55156 617 ft 156 kts 256°
2026-04-14 08:04 50.03398 8.53454 1077 ft 169 kts 256°
2026-04-14 08:05 50.03000 8.51721 1764 ft 175 kts 251°
2026-04-14 08:05 50.02348 8.49998 2200 ft 201 kts 221°
2026-04-14 08:05 50.01012 8.49137 2701 ft 216 kts 194°
2026-04-14 08:05 49.99535 8.48552 3333 ft 220 kts 194°
2026-04-14 08:06 49.98048 8.47925 4020 ft 222 kts 195°
2026-04-14 08:06 49.96560 8.47274 4756 ft 222 kts 197°
2026-04-14 08:06 49.95053 8.46600 5380 ft 234 kts 197°
2026-04-14 08:06 49.93419 8.45850 5926 ft 252 kts 198°
2026-04-14 08:07 49.91831 8.44657 6824 ft 256 kts 218°
2026-04-14 08:07 49.90586 8.42700 7746 ft 255 kts 237°
2026-04-14 08:07 49.89667 8.40355 8686 ft 255 kts 240°
2026-04-14 08:07 49.88920 8.37867 9574 ft 256 kts 253°
2026-04-14 08:08 49.88619 8.35095 10174 ft 271 kts 269°
2026-04-14 08:08 49.88749 8.32109 10538 ft 293 kts 274°
2026-04-14 08:08 49.88963 8.28841 10804 ft 316 kts 279°
2026-04-14 08:08 49.89688 8.25524 11236 ft 332 kts 296°
2026-04-14 08:09 49.90993 8.22524 11893 ft 339 kts 305°
2026-04-14 08:09 49.92406 8.19574 12637 ft 342 kts 304°
2026-04-14 08:09 49.93859 8.16615 13329 ft 348 kts 308°
2026-04-14 08:09 49.95610 8.13975 13955 ft 355 kts 316°
2026-04-14 08:10 49.97491 8.11459 14131 ft 356 kts 317°
2026-04-14 08:10 49.99373 8.08959 14172 ft 356 kts 317°
2026-04-14 08:10 50.01256 8.06454 14175 ft 356 kts 317°
2026-04-14 08:10 50.03136 8.03948 14174 ft 356 kts 316°
2026-04-14 08:11 50.05014 8.01431 14174 ft 356 kts 316°
2026-04-14 08:11 50.06887 7.98914 14174 ft 356 kts 316°
2026-04-14 08:11 50.08762 7.96391 14174 ft 356 kts 316°
2026-04-14 08:11 50.10639 7.93866 14173 ft 356 kts 316°
2026-04-14 08:12 50.12513 7.91345 14173 ft 356 kts 316°
2026-04-14 08:12 50.14388 7.88822 14170 ft 356 kts 316°
2026-04-14 08:12 50.16269 7.86291 14296 ft 360 kts 316°
2026-04-14 08:12 50.18168 7.83732 14998 ft 361 kts 316°
2026-04-14 08:13 50.20068 7.81161 15650 ft 363 kts 317°
2026-04-14 08:13 50.21980 7.78564 16315 ft 365 kts 317°
2026-04-14 08:13 50.23900 7.75953 16953 ft 368 kts 318°
2026-04-14 08:13 50.25984 7.73602 17583 ft 372 kts 328°
2026-04-14 08:14 50.28326 7.71839 18226 ft 376 kts 335°
2026-04-14 08:14 50.30734 7.70211 18837 ft 378 kts 335°
2026-04-14 08:14 50.33161 7.68558 19392 ft 382 kts 335°
2026-04-14 08:14 50.35580 7.66902 19941 ft 386 kts 335°
2026-04-14 08:15 50.38055 7.65200 20489 ft 390 kts 334°
2026-04-14 08:15 50.40553 7.63480 21040 ft 394 kts 334°
2026-04-14 08:15 50.43077 7.61744 21564 ft 398 kts 334°
2026-04-14 08:15 50.45627 7.59989 22034 ft 403 kts 334°
2026-04-14 08:16 50.48197 7.58220 22155 ft 404 kts 334°
2026-04-14 08:16 50.50776 7.56441 22181 ft 404 kts 334°
2026-04-14 08:16 50.53355 7.54663 22178 ft 404 kts 334°
2026-04-14 08:16 50.55896 7.52797 22182 ft 403 kts 329°
2026-04-14 08:17 50.58271 7.50463 22179 ft 402 kts 324°
2026-04-14 08:17 50.60614 7.48057 22177 ft 402 kts 324°
2026-04-14 08:17 50.62952 7.45656 22183 ft 400 kts 325°
2026-04-14 08:17 50.65271 7.43277 22187 ft 396 kts 325°
2026-04-14 08:18 50.67574 7.40913 22183 ft 395 kts 325°
2026-04-14 08:18 50.69875 7.38549 22186 ft 395 kts 325°
2026-04-14 08:18 50.72141 7.36109 22187 ft 394 kts 320°
2026-04-14 08:18 50.73498 7.34219 22189 ft 392 kts 313°
2026-04-14 08:19 50.75254 7.30946 22191 ft 391 kts 303°
2026-04-14 08:19 50.77033 7.26029 22193 ft 389 kts 296°
2026-04-14 08:19 50.78269 7.22227 22195 ft 389 kts 296°
2026-04-14 08:19 50.79106 7.19652 22195 ft 389 kts 296°
2026-04-14 08:20 50.80344 7.15847 22192 ft 389 kts 296°
2026-04-14 08:20 50.81583 7.12039 22195 ft 389 kts 296°
2026-04-14 08:20 50.82821 7.08238 22194 ft 389 kts 296°
2026-04-14 08:20 50.84060 7.04424 22198 ft 389 kts 296°
2026-04-14 08:21 50.85289 7.00618 22194 ft 388 kts 296°
2026-04-14 08:21 50.86516 6.96811 22193 ft 388 kts 296°
2026-04-14 08:21 50.87739 6.93011 22192 ft 388 kts 296°
2026-04-14 08:21 50.88963 6.89206 22192 ft 388 kts 296°
2026-04-14 08:22 50.90185 6.85405 22189 ft 387 kts 296°
2026-04-14 08:22 50.91406 6.81593 22193 ft 388 kts 296°
2026-04-14 08:22 50.92625 6.77782 22192 ft 388 kts 296°
2026-04-14 08:22 50.93843 6.73968 22192 ft 388 kts 296°
2026-04-14 08:23 50.95061 6.70148 22191 ft 388 kts 296°
2026-04-14 08:23 50.96261 6.66383 22190 ft 388 kts 296°
2026-04-14 08:23 50.97494 6.62519 22192 ft 388 kts 296°
2026-04-14 08:23 50.98694 6.58752 22188 ft 387 kts 296°
2026-04-14 08:24 50.99908 6.54927 22182 ft 387 kts 296°
2026-04-14 08:24 51.01114 6.51115 22184 ft 387 kts 296°
2026-04-14 08:24 51.02322 6.47297 22187 ft 387 kts 296°
2026-04-14 08:24 51.03529 6.43476 22183 ft 387 kts 296°
2026-04-14 08:25 51.04735 6.39656 22185 ft 387 kts 296°
2026-04-14 08:25 51.05939 6.35833 22185 ft 387 kts 296°
2026-04-14 08:25 51.07145 6.31992 22426 ft 390 kts 296°
2026-04-14 08:25 51.08358 6.28117 23031 ft 392 kts 295°
2026-04-14 08:26 51.09575 6.24229 23578 ft 395 kts 295°
2026-04-14 08:26 51.10802 6.20303 24042 ft 397 kts 295°
2026-04-14 08:26 51.12038 6.16347 24485 ft 400 kts 296°
2026-04-14 08:26 51.13276 6.12376 24940 ft 401 kts 295°
2026-04-14 08:27 51.14301 6.08238 25366 ft 403 kts 286°
2026-04-14 08:27 51.15019 6.03916 25781 ft 405 kts 284°
2026-04-14 08:27 51.15723 5.99567 26185 ft 407 kts 284°
2026-04-14 08:27 51.16426 5.95196 26583 ft 409 kts 284°
2026-04-14 08:28 51.17133 5.90800 26969 ft 411 kts 284°
2026-04-14 08:28 51.17846 5.86380 27383 ft 413 kts 284°
2026-04-14 08:28 51.18691 5.81999 27776 ft 414 kts 292°
2026-04-14 08:28 51.19812 5.77755 28175 ft 416 kts 293°
2026-04-14 08:29 51.20946 5.73488 28599 ft 418 kts 293°
2026-04-14 08:29 51.22077 5.69219 28968 ft 419 kts 293°
2026-04-14 08:29 51.23209 5.64924 29396 ft 420 kts 293°
2026-04-14 08:29 51.24341 5.60621 29778 ft 421 kts 293°
2026-04-14 08:30 51.25475 5.56298 30143 ft 423 kts 293°
2026-04-14 08:30 51.26598 5.52006 30454 ft 425 kts 293°
2026-04-14 08:30 51.27736 5.47647 30819 ft 425 kts 293°
2026-04-14 08:30 51.28873 5.43297 31256 ft 423 kts 294°
2026-04-14 08:31 51.30004 5.38963 31685 ft 422 kts 294°
2026-04-14 08:31 51.32247 5.30328 32559 ft 420 kts 294°
2026-04-14 08:31 51.33359 5.26017 33023 ft 418 kts 294°
2026-04-14 08:32 51.34462 5.21728 33509 ft 415 kts 294°
2026-04-14 08:32 51.35557 5.17472 34022 ft 413 kts 294°
2026-04-14 08:32 51.36648 5.13234 34448 ft 411 kts 294°
2026-04-14 08:32 51.37738 5.09011 34790 ft 411 kts 294°
2026-04-14 08:33 51.38826 5.04780 35096 ft 411 kts 294°
2026-04-14 08:33 51.39913 5.00542 35393 ft 412 kts 294°
2026-04-14 08:33 51.40999 4.96291 35681 ft 412 kts 294°
2026-04-14 08:33 51.42081 4.92040 35964 ft 413 kts 294°
2026-04-14 08:34 51.43166 4.87773 36151 ft 414 kts 294°
2026-04-14 08:34 51.44257 4.83482 36197 ft 417 kts 294°
2026-04-14 08:34 51.46444 4.74861 36187 ft 416 kts 294°
2026-04-14 08:35 51.48612 4.66280 36183 ft 415 kts 294°
2026-04-14 08:35 51.50769 4.57711 36167 ft 414 kts 294°
2026-04-14 08:36 51.52924 4.49101 36170 ft 414 kts 294°
2026-04-14 08:36 51.55055 4.40553 36198 ft 415 kts 294°
2026-04-14 08:37 51.57193 4.31939 36195 ft 415 kts 294°
2026-04-14 08:37 51.59327 4.23311 36196 ft 415 kts 294°
2026-04-14 08:38 51.61457 4.14673 36197 ft 415 kts 294°
2026-04-14 08:38 51.63586 4.06012 36196 ft 416 kts 293°
2026-04-14 08:39 51.65704 3.97357 36195 ft 415 kts 293°
2026-04-14 08:39 51.67818 3.88690 36194 ft 415 kts 293°
2026-04-14 08:40 51.68661 3.84234 36184 ft 418 kts 282°
2026-04-14 08:40 51.69018 3.79573 36184 ft 419 kts 279°
2026-04-14 08:40 51.69647 3.70232 36189 ft 419 kts 279°
2026-04-14 08:41 51.70250 3.60893 36188 ft 419 kts 279°
2026-04-14 08:41 51.70854 3.51559 36190 ft 419 kts 279°
2026-04-14 08:42 51.71456 3.42211 36192 ft 419 kts 279°
2026-04-14 08:42 51.72042 3.32918 36188 ft 419 kts 279°
2026-04-14 08:43 51.72624 3.23584 36197 ft 418 kts 279°
2026-04-14 08:43 51.73201 3.14256 36198 ft 417 kts 279°
2026-04-14 08:44 51.73771 3.04932 36191 ft 417 kts 279°
2026-04-14 08:44 51.74332 2.95620 36191 ft 417 kts 279°
2026-04-14 08:45 51.74888 2.86321 36181 ft 416 kts 279°
2026-04-14 08:45 51.75428 2.77045 36186 ft 415 kts 279°
2026-04-14 08:46 51.75962 2.67787 36078 ft 412 kts 279°
2026-04-14 08:46 51.76225 2.63184 35483 ft 412 kts 279°
2026-04-14 08:46 51.76488 2.58580 34856 ft 412 kts 279°
2026-04-14 08:47 51.76748 2.53975 34241 ft 411 kts 279°
2026-04-14 08:47 51.77004 2.49381 33521 ft 411 kts 279°
2026-04-14 08:47 51.77259 2.44777 32747 ft 412 kts 279°
2026-04-14 08:47 51.77512 2.40175 32109 ft 409 kts 280°
2026-04-14 08:48 51.77760 2.35632 31633 ft 403 kts 280°
2026-04-14 08:48 51.77998 2.31156 31138 ft 398 kts 280°
2026-04-14 08:48 51.78233 2.26727 30626 ft 394 kts 280°
2026-04-14 08:48 51.78396 2.22334 30095 ft 393 kts 275°
2026-04-14 08:49 51.78214 2.17979 29469 ft 393 kts 271°
2026-04-14 08:49 51.77951 2.13596 28864 ft 390 kts 270°
2026-04-14 08:49 51.77693 2.09248 28270 ft 387 kts 270°
2026-04-14 08:49 51.77437 2.04929 27686 ft 385 kts 270°
2026-04-14 08:50 51.77182 2.00639 27126 ft 382 kts 270°
2026-04-14 08:50 51.76927 1.96378 26567 ft 380 kts 269°
2026-04-14 08:50 51.76671 1.92144 26035 ft 377 kts 269°
2026-04-14 08:50 51.76415 1.87943 25551 ft 375 kts 269°
2026-04-14 08:51 51.76160 1.83774 25226 ft 373 kts 268°
2026-04-14 08:51 51.75906 1.79605 25163 ft 374 kts 268°
2026-04-14 08:51 51.75651 1.75413 25176 ft 375 kts 268°
2026-04-14 08:51 51.75395 1.71231 25045 ft 373 kts 268°
2026-04-14 08:52 51.75136 1.67074 24579 ft 371 kts 268°
2026-04-14 08:52 51.74877 1.62947 24128 ft 369 kts 268°
2026-04-14 08:52 51.74617 1.58830 23681 ft 368 kts 267°
2026-04-14 08:52 51.74357 1.54722 23171 ft 366 kts 267°
2026-04-14 08:53 51.74096 1.50646 22691 ft 364 kts 266°
2026-04-14 08:53 51.73834 1.46591 22214 ft 361 kts 266°
2026-04-14 08:53 51.73575 1.42629 21749 ft 359 kts 266°
2026-04-14 08:53 51.73313 1.38643 21278 ft 356 kts 266°
2026-04-14 08:54 51.73053 1.34683 20798 ft 354 kts 265°
2026-04-14 08:54 51.72795 1.30759 20482 ft 351 kts 265°
2026-04-14 08:54 51.72536 1.26835 20233 ft 352 kts 265°
2026-04-14 08:54 51.72278 1.22911 19933 ft 352 kts 265°
2026-04-14 08:55 51.72021 1.18999 19424 ft 350 kts 265°
2026-04-14 08:55 51.71765 1.15108 18901 ft 349 kts 264°
2026-04-14 08:55 51.71504 1.11225 18371 ft 348 kts 264°
2026-04-14 08:55 51.71239 1.07350 17805 ft 346 kts 264°
2026-04-14 08:56 51.70975 1.03516 17288 ft 343 kts 264°
2026-04-14 08:56 51.70712 0.99713 16781 ft 340 kts 264°
2026-04-14 08:56 51.70452 0.95938 16255 ft 337 kts 264°
2026-04-14 08:56 51.70196 0.92198 15799 ft 334 kts 264°
2026-04-14 08:57 51.69941 0.88492 15351 ft 331 kts 264°
2026-04-14 08:57 51.69685 0.84811 14897 ft 329 kts 264°
2026-04-14 08:57 51.69429 0.81161 14446 ft 327 kts 264°
2026-04-14 08:57 51.69171 0.77523 14002 ft 326 kts 264°
2026-04-14 08:58 51.68913 0.73904 13520 ft 324 kts 264°
2026-04-14 08:58 51.68658 0.70316 13077 ft 321 kts 264°
2026-04-14 08:58 51.68405 0.66757 12640 ft 319 kts 264°
2026-04-14 08:58 51.68152 0.63220 12204 ft 316 kts 264°
2026-04-14 08:59 51.67899 0.59716 11856 ft 311 kts 264°
2026-04-14 08:59 51.67650 0.56315 11728 ft 300 kts 264°
2026-04-14 08:59 51.67410 0.53031 11609 ft 289 kts 264°
2026-04-14 08:59 51.67173 0.49791 11540 ft 297 kts 264°
2026-04-14 09:00 51.66930 0.46459 11269 ft 302 kts 264°
2026-04-14 09:00 51.66684 0.43090 10697 ft 305 kts 264°
2026-04-14 09:00 51.66435 0.39683 10111 ft 308 kts 263°
2026-04-14 09:00 51.66269 0.37408 9688 ft 310 kts 263°
2026-04-14 09:01 51.66014 0.33959 9026 ft 308 kts 263°
2026-04-14 09:01 51.65765 0.30590 8466 ft 296 kts 263°
2026-04-14 09:01 51.65526 0.27383 8159 ft 279 kts 262°
2026-04-14 09:01 51.65297 0.24352 8126 ft 266 kts 262°
2026-04-14 09:02 51.65077 0.21455 8131 ft 257 kts 262°
2026-04-14 09:02 51.64860 0.18605 8130 ft 256 kts 262°
2026-04-14 09:02 51.64722 0.15751 8134 ft 256 kts 266°
2026-04-14 09:02 51.64632 0.12886 8133 ft 256 kts 266°
2026-04-14 09:03 51.64548 0.10016 8135 ft 256 kts 266°
2026-04-14 09:03 51.64467 0.07186 8133 ft 254 kts 266°
2026-04-14 09:03 51.64392 0.04408 8132 ft 246 kts 266°
2026-04-14 09:03 51.64314 0.01662 8136 ft 245 kts 266°
2026-04-14 09:04 51.64238 -0.01065 8113 ft 240 kts 266°
2026-04-14 09:04 51.64166 -0.03714 8118 ft 235 kts 266°
2026-04-14 09:04 51.64097 -0.06338 8119 ft 235 kts 266°
2026-04-14 09:04 51.64026 -0.08960 8111 ft 234 kts 266°
2026-04-14 09:05 51.63956 -0.11587 8109 ft 235 kts 266°
2026-04-14 09:05 51.63887 -0.14211 8110 ft 235 kts 266°
2026-04-14 09:05 51.63816 -0.16839 8111 ft 235 kts 266°
2026-04-14 09:05 51.63745 -0.19462 8066 ft 233 kts 266°
2026-04-14 09:06 51.63678 -0.22062 7753 ft 233 kts 266°
2026-04-14 09:06 51.63617 -0.24633 7468 ft 232 kts 266°
2026-04-14 09:06 51.63561 -0.27229 7181 ft 232 kts 266°
2026-04-14 09:06 51.63515 -0.29821 7099 ft 232 kts 266°
2026-04-14 09:07 51.63468 -0.32426 7107 ft 233 kts 266°
2026-04-14 09:07 51.63422 -0.35034 7119 ft 233 kts 266°
2026-04-14 09:07 51.63374 -0.37644 7137 ft 233 kts 264°
2026-04-14 09:07 51.63142 -0.40215 7145 ft 232 kts 257°
2026-04-14 09:08 51.62818 -0.42760 7139 ft 232 kts 256°
2026-04-14 09:08 51.62484 -0.45289 7140 ft 232 kts 256°
2026-04-14 09:08 51.62144 -0.47832 7139 ft 231 kts 256°
2026-04-14 09:08 51.61809 -0.50356 7071 ft 229 kts 256°
2026-04-14 09:09 51.61475 -0.52873 6720 ft 232 kts 256°
2026-04-14 09:09 51.61144 -0.55442 6284 ft 232 kts 256°
2026-04-14 09:09 51.60829 -0.57963 5890 ft 228 kts 256°
2026-04-14 09:09 51.60528 -0.60458 5499 ft 226 kts 256°
2026-04-14 09:10 51.60234 -0.62938 5114 ft 225 kts 256°
2026-04-14 09:10 51.59947 -0.65408 4727 ft 224 kts 256°
2026-04-14 09:10 51.59673 -0.67826 4389 ft 222 kts 256°
2026-04-14 09:10 51.59407 -0.70261 4057 ft 220 kts 256°
2026-04-14 09:11 51.59149 -0.72692 3715 ft 220 kts 256°
2026-04-14 09:11 51.58905 -0.75117 3342 ft 219 kts 256°
2026-04-14 09:11 51.58675 -0.77533 3000 ft 217 kts 256°
2026-04-14 09:11 51.58434 -0.79938 2994 ft 218 kts 251°
2026-04-14 09:12 51.57762 -0.81905 2980 ft 190 kts 216°
2026-04-14 09:12 51.56632 -0.82675 2979 ft 173 kts 187°
2026-04-14 09:12 51.55451 -0.82797 2980 ft 168 kts 182°
2026-04-14 09:12 51.54286 -0.82820 2998 ft 167 kts 181°
2026-04-14 09:13 51.53130 -0.82821 3017 ft 166 kts 181°
2026-04-14 09:13 51.51976 -0.82825 2992 ft 166 kts 180°
2026-04-14 09:13 51.50904 -0.82280 2991 ft 171 kts 146°
2026-04-14 09:13 51.50092 -0.80852 2991 ft 175 kts 133°
2026-04-14 09:14 51.49369 -0.79277 2996 ft 176 kts 131°
2026-04-14 09:14 51.48659 -0.77681 2992 ft 176 kts 131°
2026-04-14 09:14 51.47963 -0.76063 2993 ft 177 kts 124°
2026-04-14 09:14 51.47617 -0.74130 2996 ft 187 kts 99°
2026-04-14 09:15 51.47621 -0.72024 2948 ft 190 kts 96°
2026-04-14 09:15 51.47639 -0.69920 2760 ft 188 kts 96°
2026-04-14 09:15 51.47653 -0.67831 2514 ft 187 kts 96°
2026-04-14 09:15 51.47665 -0.65761 2272 ft 185 kts 96°
2026-04-14 09:16 51.47677 -0.63703 2022 ft 183 kts 96°
2026-04-14 09:16 51.47688 -0.61687 1771 ft 177 kts 96°
2026-04-14 09:16 51.47700 -0.59809 1555 ft 159 kts 96°
2026-04-14 09:16 51.47708 -0.58065 1321 ft 153 kts 95°
2026-04-14 09:17 51.47715 -0.56378 1112 ft 150 kts 94°
2026-04-14 09:17 51.47722 -0.54715 900 ft 148 kts 94°
2026-04-14 09:17 51.47729 -0.53048 703 ft 150 kts 94°
2026-04-14 09:17 51.47737 -0.51466 500 ft 137 kts 93°
2026-04-14 09:18 51.47743 -0.49914 313 ft 137 kts 96°
2026-04-14 09:18 51.47749 -0.48426 140 ft 134 kts 94°
2026-04-14 09:18 51.47756 -0.47047 91 ft 97 kts 90°
2026-04-14 09:18 51.47757 -0.46235 87 ft 42 kts 91°
2026-04-14 09:19 51.47613 -0.46068 88 ft 25 kts 215°
2026-04-14 09:19 51.47589 -0.46237 86 ft 14 kts 271°
2026-04-14 09:19 51.47590 -0.46401 86 ft 15 kts 272°
2026-04-14 09:19 51.47593 -0.46587 86 ft 18 kts 270°
2026-04-14 09:20 51.47590 -0.46806 86 ft 21 kts 263°
2026-04-14 09:20 51.47580 -0.47010 88 ft 20 kts 268°
2026-04-14 09:20 51.47582 -0.47249 90 ft 23 kts 270°
2026-04-14 09:20 51.47581 -0.47523 89 ft 26 kts 270°
2026-04-14 09:21 51.47581 -0.47801 90 ft 20 kts 271°
2026-04-14 09:21 51.47580 -0.48036 87 ft 23 kts 270°
2026-04-14 09:21 51.47580 -0.48305 90 ft 26 kts 265°
2026-04-14 09:21 51.47536 -0.48472 90 ft 15 kts 193°
2026-04-14 09:22 51.47429 -0.48477 86 ft 17 kts 180°
2026-04-14 09:22 51.47304 -0.48473 86 ft 19 kts 178°
2026-04-14 09:22 51.47164 -0.48470 89 ft 21 kts 181°
2026-04-14 09:22 51.47059 -0.48475 88 ft 12 kts 194°
2026-04-14 09:23 51.47048 -0.48523 88 ft 3 kts 269°
2026-04-14 09:23 51.47049 -0.48578 87 ft 0 kts 270°